Regional Weather Roundup
Issued by NWS Raleigh/Durham, NC

Home | Current Version | Previous Version | Text Only | Print | Product List | Glossary On
Versions: 1 2 3 4 5 6 7 8 9 10 11 12 13 14 15 16 17 18 19 20 21 22 23 24 25 26 27 28 29 30 31 32 33 34 35 36 37 38 39 40 41 42 43 44 45 46 47 48 49 50
000
ASUS42 KRAH 242110
RWRRAH
NORTH CAROLINA WEATHER ROUNDUP
NATIONAL WEATHER SERVICE RALEIGH NC
500 PM EDT SAT JUN 24 2017

NOTE: "FAIR" INDICATES FEW OR NO CLOUDS BELOW 12,000 FEET WITH NO
SIGNIFICANT WEATHER AND/OR OBSTRUCTIONS TO VISIBILITY.

NCZ001-053-055-056-065-067-242200-
WESTERN NORTH CAROLINA

CITY           SKY/WX    TMP DP  RH WIND       PRES   REMARKS
ASHEVILLE      CLOUDY    78  69  73 SE3       30.03F
JEFFERSON      MOSUNNY   76  60  57 W9        30.07F
HICKORY        CLOUDY    73  71  93 CALM      29.97F
RUTHERFORDTON  NOT AVBL
MOUNT AIRY     PTSUNNY   83  71  66 SE5       29.97S
BOONE          NOT AVBL
$$

NCZ021-022-025-041-071-084-088-242200-
CENTRAL NORTH CAROLINA

CITY           SKY/WX    TMP DP  RH WIND       PRES   REMARKS
CHARLOTTE      CLOUDY    79  67  66 N9        29.97R
GREENSBORO     TSTM      72  72 100 S9        29.96R
WINSTON-SALEM  LGT RAIN  71  68  90 MISG      29.97S
RALEIGH-DURHAM CLOUDY    88  71  57 SW6       29.90F
FORT BRAGG     TSTM      77  75  94 W14       29.90F FOG
FAYETTEVILLE   TSTM      83  79  88 W13       29.91F FOG
BURLINGTON     HVY RAIN  72  69  90 W15       29.96R VSB 3/4
LAURINBURG     CLOUDY    80  78  94 S3        29.91S
$$

NCZ011-015-027-028-043-044-047-080-103-242200-
NORTHEASTERN NORTH CAROLINA

CITY           SKY/WX    TMP DP  RH WIND       PRES   REMARKS
ROCKY MT-WILSO CLOUDY    88  72  58 W5        29.90F
GREENVILLE     RAIN      90  72  55 W6        29.93S HX  96
WASHINGTON     DRIZZLE  N/A N/A N/A S7        29.90S
ELIZABETH CITY SUNNY     90  73  57 SW9       29.89F HX  98
MANTEO         MOSUNNY   88  71  57 N5        29.91F
CAPE HATTERAS  SUNNY     82  75  79 SW15G22   29.95R
$$

NCZ078-087-090-091-093-098-101-242200-
SOUTHEASTERN NORTH CAROLINA

CITY           SKY/WX    TMP DP  RH WIND       PRES   REMARKS
LUMBERTON      MOSUNNY   91  75  59 SW12G22   29.88F HX 101
GOLDSBORO      PTSUNNY   79  79 100 CALM      29.90R
KINSTON        RAIN      73  72  94 CALM      29.94R
KENANSVILLE    LGT RAIN  84  77  79 W9        29.91S
NEW BERN       MOSUNNY   83  78  85 E7        29.93R
CHERRY POINT   PTSUNNY   87  73  62 SW16G26   29.92R
BEAUFORT       SUNNY     84  79  85 SW22G28   29.93S HX  96
JACKSONVILLE   SUNNY     89  78  70 SW14      29.89F HX 103
WILMINGTON     SUNNY     89  73  59 SW21G28   29.92F HX  97
$$




USA.gov is the U.S. government's official web portal to all federal, state and local government web resources and services.